WB7CYS Weather Reports


Display with metric or nautical units.
time (UTC)temp
F
wind
direction
speed
MPH
gust
MPH
rain 1hr
in
rain 24hr
in
rain mn
in
humidity
%
barometer
mb
20260901114544 0 0.0 0.0 0.00 0.00 0.00 1003.7
20260901113036 0 0.0 0.0 0.00 0.00 0.00 1003.9
20260901111531 0 0.0 0.0 0.00 0.00 0.00 1003.8
20260901110032 0 0.0 0.0 0.00 0.00 0.00 1004.0
20260901104524 0 0.0 0.0 0.00 0.00 0.00 1004.1
20260901103018 0 0.0 0.0 0.00 0.00 0.00 1004.3
20260901101513 0 0.0 0.0 0.00 0.00 0.00 1004.4
20260901100010 0 0.0 0.0 0.00 0.00 0.00 1004.5
20260901094516 59 87 5.0 6.0 0.00 0.00 0.00 43 1004.6
20260901093006 61 94 2.0 3.0 0.00 0.00 0.00 43 1004.6
20260901091505 60 86 4.0 6.0 0.00 0.00 0.00 44 1004.7
20260901090008 61 92 4.0 6.0 0.00 0.00 0.00 43 1004.7
20260901084601 59 87 5.0 6.0 0.00 0.00 0.00 45 1004.7
20260901083059 61 73 3.0 5.0 0.00 0.00 0.00 44 1004.8
20260901081556 61 99 2.0 5.0 0.00 0.00 0.00 44 1004.8
20260901080052 63 97 3.0 4.0 0.00 0.00 0.00 39 1004.6
20260901074550 62 97 4.0 5.0 0.00 0.00 0.00 42 1004.7
20260901073049 62 77 3.0 5.0 0.00 0.00 0.00 41 1004.6
20260901071557 62 93 4.0 6.0 0.00 0.00 0.00 43 1004.5
20260901070042 63 98 3.0 5.0 0.00 0.00 0.00 41 1004.5
20260901064543 67 142 1.0 3.0 0.00 0.00 0.00 35 1004.5
20260901063041 66 70 3.0 4.0 0.00 0.00 0.00 35 1004.4
20260901061541 68 106 0.0 2.0 0.00 0.00 0.00 34 1004.3
20260901060040 66 89 2.0 4.0 0.00 0.00 0.00 36 1004.5
20260901054540 66 85 2.0 2.0 0.00 0.00 0.00 36 1004.5
20260901053044 66 210 0.0 2.0 0.00 0.00 0.00 36 1004.6
20260901051538 67 261 2.0 4.0 0.00 0.00 0.00 35 1004.6
20260901050038 66 108 2.0 4.0 0.00 0.00 0.00 35 1004.5
20260901044544 67 313 3.0 4.0 0.00 0.00 0.00 33 1004.5
20260901043041 66 294 2.0 4.0 0.00 0.00 0.00 35 1004.4
20260901041537 68 143 2.0 3.0 0.00 0.00 0.00 33 1004.4
20260901040035 73 94 1.0 3.0 0.00 0.00 0.00 27 1004.4
20260901034536 73 346 1.0 3.0 0.00 0.00 0.00 28 1004.4
20260901033033 72 87 0.0 4.0 0.00 0.00 0.00 29 1004.3
20260901031533 74 91 4.0 6.0 0.00 0.00 0.00 27 1004.2
20260901030032 76 51 4.0 6.0 0.00 0.00 0.00 26 1004.2
20260901024531 76 56 4.0 6.0 0.00 0.00 0.00 26 1004.2
20260901023039 76 58 5.0 7.0 0.00 0.00 0.00 26 1004.2
20260901021531 78 53 4.0 6.0 0.00 0.00 0.00 24 1004.3
20260901020027 81 32 1.0 4.0 0.00 0.00 0.00 23 1004.4
20260901014526 82 356 2.0 8.0 0.00 0.00 0.00 22 1004.4
20260901013028 83 352 8.0 14.0 0.00 0.00 0.00 21 1004.5
20260901011524 83 1 7.0 14.0 0.00 0.00 0.00 21 1004.4
20260901010023 84 352 4.0 15.0 0.00 0.00 0.00 21 1004.5
20260901004520 84 27 6.0 12.0 0.00 0.00 0.00 22 1004.7
20260901003023 84 11 9.0 17.0 0.00 0.00 0.00 22 1004.9
20260901001522 84 359 6.0 13.0 0.00 0.00 0.00 22 1005.1
20260901000013 84 357 8.0 14.0 0.00 0.00 0.00 22 1005.4
20260831234512 84 15 7.0 14.0 0.00 0.00 0.00 23 1005.5
20260831233013 84 352 6.0 17.0 0.00 0.00 0.00 23 1005.7
20260831231505 84 26 9.0 16.0 0.00 0.00 0.00 23 1006.0
20260831230002 84 333 7.0 17.0 0.00 0.00 0.00 23 1006.1
20260831224559 83 44 5.0 13.0 0.00 0.00 0.00 24 1006.4
20260831223057 83 87 5.0 15.0 0.00 0.00 0.00 23 1006.6
20260831221553 83 8 8.0 14.0 0.00 0.00 0.00 24 1007.0
20260831220049 82 335 6.0 17.0 0.00 0.00 0.00 24 1007.2
20260831214546 82 348 4.0 12.0 0.00 0.00 0.00 24 1007.7
20260831213042 80 15 8.0 14.0 0.00 0.00 0.00 25 1008.0
20260831211539 80 22 11.0 18.0 0.00 0.00 0.00 26 1008.1
20260831210039 79 329 9.0 15.0 0.00 0.00 0.00 26 1008.4
20260831204537 79 41 4.0 10.0 0.00 0.00 0.00 26 1008.7
20260831203031 79 327 3.0 15.0 0.00 0.00 0.00 27 1008.9
20260831201527 78 354 6.0 11.0 0.00 0.00 0.00 27 1009.2
20260831200029 78 356 8.0 12.0 0.00 0.00 0.00 28 1009.4
20260831194521 77 358 3.0 10.0 0.00 0.00 0.00 28 1009.6
20260831193024 77 68 4.0 11.0 0.00 0.00 0.00 28 1009.8
20260831191514 76 335 4.0 13.0 0.00 0.00 0.00 29 1010.1
20260831190011 75 293 4.0 13.0 0.00 0.00 0.00 29 1010.5
20260831184508 76 340 4.0 12.0 0.00 0.00 0.00 29 1010.6
20260831183005 75 342 3.0 10.0 0.00 0.00 0.00 29 1010.8
20260831181503 74 308 2.0 8.0 0.00 0.00 0.00 29 1010.9
20260831180101 74 325 5.0 8.0 0.00 0.00 0.00 30 1011.2
20260831174556 72 314 1.0 7.0 0.00 0.00 0.00 33 1011.4
20260831173056 71 212 4.0 6.0 0.00 0.00 0.00 35 1011.7
20260831171549 69 266 1.0 4.0 0.00 0.00 0.00 36 1011.8
20260831170047 69 235 2.0 5.0 0.00 0.00 0.00 37 1011.8
20260831164543 66 116 1.0 4.0 0.00 0.00 0.00 40 1011.8
20260831163039 64 249 3.0 5.0 0.00 0.00 0.00 42 1012.0
20260831161535 63 211 2.0 4.0 0.00 0.00 0.00 44 1012.3
20260831160038 61 245 2.0 3.0 0.00 0.00 0.00 48 1012.4
20260831154530 61 224 3.0 4.0 0.00 0.00 0.00 47 1012.5
20260831153029 60 250 2.0 4.0 0.00 0.00 0.00 47 1012.6
20260831151525 60 113 4.0 6.0 0.00 0.00 0.00 47 1012.6
20260831150022 58 93 7.0 11.0 0.00 0.00 0.00 48 1012.6
20260831144522 57 86 9.0 12.0 0.00 0.00 0.00 48 1012.6
20260831143021 56 100 9.0 12.0 0.00 0.00 0.00 50 1012.4
20260831141520 55 87 9.0 12.0 0.00 0.00 0.00 51 1012.1
20260831140019 54 101 9.0 12.0 0.00 0.00 0.00 53 1012.1
20260831134515 0 0.0 0.0 0.00 0.00 0.00 1012.2
20260831133017 0 0.0 0.0 0.00 0.00 0.00 1012.1
20260831131508 0 0.0 0.0 0.00 0.00 0.00 1012.1
20260831130001 0 0.0 0.0 0.00 0.00 0.00 1012.1
20260831124557 0 0.0 0.0 0.00 0.00 0.00 1012.0
20260831123052 0 0.0 0.0 0.00 0.00 0.00 1012.1
20260831121547 0 0.0 0.0 0.00 0.00 0.00 1012.1
20260831120043 0 0.0 0.0 0.00 0.00 0.00 1012.1